When you browse on this site, cookies collect data to enhance your experience and personalize the content and advertising you see.
Visit our Privacy Policy to learn more. By continuing to use the site, you agree to this use of cookies and data.
  • In Hungary
  • List of Countries
  • For 7 days
  • Water Temperature
  • Weather Map
  • News
  • Weather Widgets
  • user-avatar
    Login

    Hourly Weather Karmankino

    Today, 21 January, Tuesday

    Time Temperature Precipitation Wind Pressure Humidity
    00:00 -2°C° 0 mm 5 mps 739 mmHg 90%
    01:00 -2°C° 0 mm 5 mps 739 mmHg 91%
    02:00 -2°C° 0 mm 5 mps 738 mmHg 92%
    03:00 -2°C° 0.2 mm 6 mps 737 mmHg 91%
    04:00 -2°C° 0.2 mm 6 mps 736 mmHg 90%
    05:00 -1°C° 0.2 mm 6 mps 735 mmHg 89%
    06:00 -1°C° 0 mm 6 mps 734 mmHg 90%
    07:00 -1°C° 0 mm 6 mps 734 mmHg 90%
    08:00 -1°C° 0 mm 6 mps 733 mmHg 90%
    09:00 +1°C° 0 mm 6 mps 733 mmHg 91%
    10:00 +1°C° 0 mm 6 mps 732 mmHg 91%
    11:00 +1°C° 0 mm 6 mps 732 mmHg 91%
    12:00 +2°C° 0.1 mm 6 mps 731 mmHg 91%
    13:00 +2°C° 0.1 mm 6 mps 730 mmHg 90%
    14:00 +3°C° 0.1 mm 6 mps 730 mmHg 90%
    15:00 +3°C° 1.1 mm 6 mps 729 mmHg 91%
    16:00 +3°C° 1.1 mm 6 mps 728 mmHg 92%
    17:00 +3°C° 1.1 mm 6 mps 727 mmHg 93%
    18:00 +2°C° 0.7 mm 6 mps 727 mmHg 88%
    19:00 0°C° 0.7 mm 7 mps 728 mmHg 83%
    20:00 -1°C° 0.7 mm 7 mps 728 mmHg 79%
    21:00 -1°C° 0 mm 7 mps 728 mmHg 76%
    22:00 -2°C° 0 mm 7 mps 728 mmHg 74%
    23:00 -3°C° 0 mm 7 mps 729 mmHg 72%

    Tomorrow, 22 January, Wednesday

    Time Temperature Precipitation Wind Pressure Humidity
    00:00 -3°C° 0 mm 6 mps 728 mmHg 74%
    01:00 -3°C° 0 mm 6 mps 728 mmHg 76%
    02:00 -4°C° 0 mm 6 mps 728 mmHg 78%
    03:00 -4°C° 0 mm 6 mps 728 mmHg 79%
    04:00 -4°C° 0 mm 6 mps 727 mmHg 80%
    05:00 -4°C° 0 mm 6 mps 726 mmHg 81%
    06:00 -4°C° 0.1 mm 6 mps 725 mmHg 83%
    07:00 -4°C° 0.1 mm 6 mps 725 mmHg 84%
    08:00 -4°C° 0.1 mm 5 mps 725 mmHg 86%
    09:00 -4°C° 0.3 mm 5 mps 724 mmHg 85%
    10:00 -4°C° 0.3 mm 6 mps 724 mmHg 84%
    11:00 -3°C° 0.3 mm 6 mps 724 mmHg 83%
    12:00 -2°C° 0.2 mm 5 mps 724 mmHg 77%
    13:00 -2°C° 0.2 mm 5 mps 724 mmHg 71%
    14:00 -2°C° 0.2 mm 5 mps 724 mmHg 65%
    15:00 -4°C° 0 mm 5 mps 724 mmHg 68%
    16:00 -4°C° 0 mm 5 mps 725 mmHg 71%
    17:00 -5°C° 0 mm 5 mps 725 mmHg 74%
    18:00 -5°C° 0 mm 6 mps 726 mmHg 76%
    19:00 -5°C° 0 mm 6 mps 726 mmHg 77%
    20:00 -5°C° 0 mm 6 mps 727 mmHg 79%
    21:00 -6°C° 0 mm 6 mps 727 mmHg 75%
    22:00 -6°C° 0 mm 6 mps 728 mmHg 71%
    23:00 -8°C° 0 mm 6 mps 728 mmHg 67%

    Day after tomorrow, 23 January, Thursday

    Time Temperature Precipitation Wind Pressure Humidity
    00:00 -8°C° 0 mm 6 mps 729 mmHg 66%
    01:00 -8°C° 0 mm 6 mps 730 mmHg 64%
    02:00 -8°C° 0 mm 6 mps 730 mmHg 63%
    03:00 -9°C° 0 mm 6 mps 731 mmHg 60%
    04:00 -9°C° 0 mm 6 mps 731 mmHg 57%
    05:00 -9°C° 0 mm 6 mps 731 mmHg 54%
    06:00 -9°C° 0 mm 6 mps 732 mmHg 53%
    07:00 -9°C° 0 mm 6 mps 732 mmHg 52%
    08:00 -8°C° 0 mm 5 mps 733 mmHg 51%
    09:00 -8°C° 0 mm 6 mps 733 mmHg 52%
    10:00 -8°C° 0 mm 6 mps 733 mmHg 53%
    11:00 -7°C° 0 mm 7 mps 734 mmHg 54%
    12:00 -6°C° 0 mm 6 mps 734 mmHg 54%
    13:00 -6°C° 0 mm 6 mps 734 mmHg 54%
    14:00 -6°C° 0 mm 6 mps 735 mmHg 53%
    15:00 -6°C° 0 mm 5 mps 735 mmHg 57%
    16:00 -6°C° 0 mm 5 mps 735 mmHg 60%
    17:00 -7°C° 0 mm 4 mps 736 mmHg 64%
    18:00 -7°C° 0 mm 4 mps 736 mmHg 66%
    19:00 -6°C° 0 mm 3 mps 736 mmHg 68%
    20:00 -6°C° 0 mm 3 mps 736 mmHg 70%
    21:00 -6°C° 0 mm 3 mps 736 mmHg 71%
    22:00 -6°C° 0 mm 3 mps 736 mmHg 71%
    23:00 -5°C° 0 mm 3 mps 736 mmHg 72%

    24 January, Friday

    Time Temperature Precipitation Wind Pressure Humidity
    00:00 -5°C° 0 mm 3 mps 735 mmHg 76%
    01:00 -5°C° 0 mm 4 mps 735 mmHg 81%
    02:00 -5°C° 0 mm 4 mps 734 mmHg 85%
    03:00 -5°C° 0.2 mm 4 mps 734 mmHg 87%
    04:00 -5°C° 0.2 mm 5 mps 733 mmHg 90%
    05:00 -5°C° 0.2 mm 5 mps 733 mmHg 93%
    06:00 -5°C° 0.1 mm 5 mps 732 mmHg 92%
    07:00 -4°C° 0.1 mm 5 mps 732 mmHg 92%
    08:00 -3°C° 0.1 mm 4 mps 731 mmHg 91%
    09:00 -2°C° 0 mm 4 mps 731 mmHg 92%
    10:00 -2°C° 0 mm 4 mps 731 mmHg 92%
    11:00 -1°C° 0 mm 4 mps 731 mmHg 93%
    12:00 0°C° 0 mm 4 mps 731 mmHg 92%
    13:00 0°C° 0 mm 4 mps 731 mmHg 91%
    14:00 0°C° 0 mm 4 mps 732 mmHg 90%
    15:00 0°C° 0 mm 4 mps 732 mmHg 91%
    16:00 0°C° 0 mm 4 mps 732 mmHg 92%
    17:00 +1°C° 0 mm 3 mps 732 mmHg 93%
    18:00 +1°C° 0.1 mm 3 mps 731 mmHg 94%
    19:00 +1°C° 0.1 mm 3 mps 731 mmHg 95%
    20:00 0°C° 0.1 mm 4 mps 731 mmHg 95%
    21:00 0°C° 0 mm 4 mps 731 mmHg 95%
    22:00 0°C° 0 mm 4 mps 731 mmHg 95%
    23:00 0°C° 0 mm 4 mps 730 mmHg 95%

    25 January, Saturday

    Time Temperature Precipitation Wind Pressure Humidity
    00:00 0°C° 0.1 mm 4 mps 730 mmHg 94%
    01:00 0°C° 0.1 mm 4 mps 730 mmHg 93%
    02:00 0°C° 0.1 mm 4 mps 730 mmHg 93%
    03:00 0°C° 0 mm 5 mps 730 mmHg 93%
    04:00 0°C° 0 mm 5 mps 730 mmHg 92%
    05:00 0°C° 0 mm 5 mps 729 mmHg 92%
    06:00 0°C° 0 mm 5 mps 729 mmHg 93%
    07:00 -1°C° 0 mm 4 mps 729 mmHg 95%
    08:00 -1°C° 0 mm 4 mps 730 mmHg 96%
    09:00 0°C° 0.1 mm 4 mps 730 mmHg 96%
    10:00 0°C° 0.1 mm 4 mps 730 mmHg 96%
    11:00 0°C° 0.1 mm 4 mps 731 mmHg 96%
    12:00 0°C° 0.1 mm 4 mps 731 mmHg 96%
    13:00 0°C° 0.1 mm 4 mps 731 mmHg 96%
    14:00 +1°C° 0.1 mm 3 mps 731 mmHg 96%
    15:00 +1°C° 0 mm 3 mps 731 mmHg 96%
    16:00 +1°C° 0 mm 3 mps 731 mmHg 96%
    17:00 +2°C° 0 mm 2 mps 732 mmHg 97%
    18:00 +1°C° 0 mm 2 mps 732 mmHg 97%
    19:00 +1°C° 0 mm 2 mps 732 mmHg 97%
    20:00 +1°C° 0 mm 2 mps 732 mmHg 97%
    21:00 +1°C° 0 mm 2 mps 732 mmHg 97%
    22:00 +1°C° 0 mm 2 mps 732 mmHg 98%
    23:00 +1°C° 0 mm 1 mps 733 mmHg 98%

    26 January, Sunday

    Time Temperature Precipitation Wind Pressure Humidity
    00:00 +1°C° 0 mm 1 mps 733 mmHg 98%
    01:00 +1°C° 0 mm 1 mps 733 mmHg 98%
    02:00 +1°C° 0 mm 1 mps 733 mmHg 98%
    03:00 +1°C° 0 mm 1 mps 733 mmHg 98%
    04:00 +1°C° 0 mm 1 mps 733 mmHg 97%
    05:00 +1°C° 0 mm 1 mps 733 mmHg 97%
    06:00 +1°C° 0 mm 1 mps 733 mmHg 97%
    07:00 +1°C° 0 mm 1 mps 733 mmHg 98%
    08:00 +1°C° 0 mm 1 mps 733 mmHg 98%
    09:00 +1°C° 0 mm 2 mps 733 mmHg 97%
    10:00 +1°C° 0 mm 2 mps 733 mmHg 97%
    11:00 +1°C° 0 mm 2 mps 733 mmHg 97%
    12:00 +1°C° 0 mm 2 mps 733 mmHg 96%
    13:00 0°C° 0 mm 3 mps 733 mmHg 96%
    14:00 +1°C° 0 mm 3 mps 733 mmHg 96%
    15:00 +1°C° 0.1 mm 3 mps 733 mmHg 96%
    16:00 0°C° 0.1 mm 3 mps 733 mmHg 96%
    17:00 0°C° 0.1 mm 3 mps 733 mmHg 96%
    18:00 0°C° 0 mm 3 mps 733 mmHg 96%
    19:00 0°C° 0 mm 3 mps 732 mmHg 96%
    20:00 0°C° 0 mm 3 mps 732 mmHg 97%
    21:00 0°C° 0 mm 3 mps 732 mmHg 94%
    22:00 -2°C° 0 mm 4 mps 732 mmHg 91%
    23:00 -2°C° 0 mm 4 mps 732 mmHg 89%
    Show more